sat.trackr.live / text

‹ back to catalog

GEESAT-5 05

NORAD 65554 · 2025-201E

PAYLOAD ACTIVE UNKNOWN

§ Identity

Operator
Country
PRC
Launch date
2025-09-08
Launch site
YSLA
Launch vehicle
Mass (kg)
RCS (m²)

External: N2YO · Heavens-Above · Gunter

§ Orbital elements

Epoch: 2026-05-25T00:19:34.735008Z

Period
97.03 min
Inclination
49.9800°
Eccentricity
0.0011006
Mean motion
14.84087492 rev/d
Perigee alt
608.8 km
Apogee alt
624.1 km
Semi-major
6,994.6 km
B*
1.6710e-4
RAAN
146.6434°
Arg perigee
192.1903°
Mean anomaly
167.8770°
Rev number
3,835

§ Raw data

GEESAT-5 051 65554U 25201E   26145.01359647  .00001181  00000+0  16710-3 0  99962 65554  49.9800 146.6434 0011006 192.1903 167.8770 14.84087492 38350

JSON: /api/v1/satellites/65554 · /tle

For live sub-satellite position, see the globe view (requires WebGL).

§ Visibility from observer

Set your observer location to see the next 7 days of passes ≥ 10°. The values pass through the URL so the page stays shareable.

No JS? Fill the form by hand. The geolocation button needs JavaScript.